Location: Newark
(42.7133°N, 87.7910°W)
Time: 11:04:53
(UTC+00:00)

Tiros 1 - Pass Details

Date: 22 September 2019
Orbit: 630 x 664 km, 48.4° (Epoch: 21 October)

Event Time Altitude Azimuth Distance (km) Brightness Sun altitude
Rises 18:08:16 0° 236° (WSW) 2,971 11.0 47.2°
Reaches altitude 10° 18:10:37 10° 235° (SW) 2,057 10.3 47.1°
Maximum altitude 18:15:21 76° 150° (SSE) 672 8.4 46.9°
Drops below altitude 10° 18:20:03 10° 66° (ENE) 2,042 9.6 46.7°
Sets 18:22:23 0° 64° (ENE) 2,948 10.3 46.6°
